Terminal Aerodrome Forecast
Issued by NWS

Home | Current Version | Previous Version | Text Only | Print | Product List | Glossary On
Versions: 1 2 3 4 5 6 7 8 9 10 11 12 13 14 15 16 17 18 19 20 21 22 23 24 25 26 27
000
FTUS41 KCAR 211100
TAFFVE
TAF
KFVE 211123Z 2112/2212 00000KT P6SM BKN250
     FM220600 04005KT P6SM BKN030
     FM220900 04006KT P6SM BKN045
     FM221000 05006KT P6SM OVC025=

USA.gov is the U.S. government's official web portal to all federal, state and local government web resources and services.